This demonstration page uses our WeatherBlox Daily Observations layout. Learn more.

38.88101, -77.10428

Hourly Observations for March 9, 2020

Temp ( °F °C ) Dew Point ( °F °C ) Humidity (%) Winds ( mph kmh ) Pressure ( in mb ) Visibility ( mi km ) Precip ( " mm )
12:52 am 00:52 Partly Cloudy 51 10.6 25 -3.9 36 36 SSW 8 13 30.42 1030 10 16.0934 0 0
1:52 am 01:52 Mostly Cloudy 50 10 27 -2.8 41 41 S 10 17 30.42 1030 10 16.0934 0 0
2:52 am 02:52 Mostly Cloudy 48 8.9 29 -1.7 48 48 S 9 15 30.42 1030 10 16.0934 0 0
3:52 am 03:52 Cloudy 48 8.9 28 -2.2 46 46 S 7 11 30.41 1030 10 16.0934 0 0
4:52 am 04:52 Mostly Cloudy 46 7.8 29 -1.7 51 51 S 8 13 30.41 1030 10 16.0934 0 0
5:52 am 05:52 Mostly Clear 45 7.2 29 -1.7 54 54 SSW 7 11 30.42 1030 10 16.0934 0 0
6:52 am 06:52 Mostly Clear 44 6.7 30 -1.1 58 58 SSW 7 11 30.43 1031 10 16.0934 0 0
7:52 am 07:52 Mostly Sunny 44 6.7 30 -1.1 58 58 SW 6 9 30.43 1031 10 16.0934 0 0
8:52 am 08:52 Mostly Sunny 49 9.4 30 -1.1 48 48 SSW 7 11 30.45 1031 10 16.0934 0 0
9:52 am 09:52 Sunny 53 11.7 30 -1.1 41 41 SSW 9 15 30.45 1031 10 16.0934 0 0
10:52 am 10:52 Mostly Sunny 55 12.8 34 1.1 45 45 S 9 15 30.45 1031 10 16.0934 0 0
11:52 am 11:52 Mostly Sunny 59 15 33 0.6 38 38 S 7 11 30.44 1031 10 16.0934 0 0
12:52 pm 12:52 Partly Cloudy 62 16.7 35 1.7 37 37 S 7 11 30.41 1030 10 16.0934 0 0
1:52 pm 13:52 Mostly Cloudy 67 19.4 33 0.6 28 28 S 9 15 30.38 1029 10 16.0934 0 0
2:52 pm 14:52 Partly Cloudy 70 21.1 34 1.1 27 27 S 12 19 30.34 1027 10 16.0934 0 0
3:52 pm 15:52 Partly Cloudy 71 21.7 32 0 24 24 S 12 19 30.31 1026 10 16.0934 0 0
4:52 pm 16:52 Mostly Cloudy 74 23.3 25 -3.9 16 16 S 9 15 30.29 1026 10 16.0934 0 0
5:52 pm 17:52 Mostly Cloudy 68 20 31 -0.6 25 25 S 12 19 30.29 1026 10 16.0934 0 0
6:52 pm 18:52 Mostly Cloudy 64 17.8 33 0.6 32 32 S 12 19 30.28 1026 10 16.0934 0 0
7:52 pm 19:52 Mostly Cloudy 62 16.7 31 -0.6 31 31 S 10 17 30.29 1026 10 16.0934 0 0
8:52 pm 20:52 Mostly Cloudy 65 18.3 28 -2.2 25 25 SSW 13 20 30.3 1026 10 16.0934 0 0
9:52 pm 21:52 Mostly Cloudy 63 17.2 29 -1.7 28 28 S 9 15 30.32 1027 10 16.0934 0 0
10:52 pm 22:52 Mostly Cloudy 62 16.7 31 -0.6 31 31 S 10 17 30.32 1027 10 16.0934 0 0
11:52 pm 23:52 Mostly Cloudy 59 15 35 1.7 41 41 S 9 15 30.31 1026 10 16.0934 0 0

Powered by AerisWeather